Regional Weather Roundup
Issued by NWS Cleveland, OH

Home | Current Version | Previous Version | Text Only | Print | Product List | Glossary Off
Versions: 1 2 3 4 5 6 7 8 9 10 11 12 13 14 15 16 17 18 19 20 21 22 23 24 25 26 27 28 29 30 31 32 33 34 35 36 37 38 39 40 41 42 43 44 45 46 47 48 49 50

000
ASUS41 KCLE 290010
RWRCLE
OHIO REGIONAL WEATHER ROUNDUP
NATIONAL WEATHER SERVICE WILMINGTON, OH
700 PM EST WED JAN 28 2015

NOTE: "FAIR" INDICATES FEW OR NO CLOUDS BELOW 12,000 FEET WITH NO
SIGNIFICANT WEATHER AND/OR OBSTRUCTIONS TO VISIBILITY.

OHZ001>008-015>018-024>027-034-035-043-044-290100-
   NORTHWEST OHIO

CITY           SKY/WX    TMP DP  RH WIND       PRES   REMARKS
DEFIANCE       PTCLDY    24  14  65 SE5       30.23F WCI  18
FINDLAY        MOCLDY    23  13  65 S9        30.24S WCI  13
TOLEDO EXPRESS CLOUDY    22  14  71 SE3       30.25F
TOLEDO EXEC    CLOUDY    23  13  65 S6        30.27S WCI  16
LIMA           MOCLDY    24  14  65 SE13      30.22F WCI  12
$$

OHZ009>014-019>023-028>033-038-089-290100-
   NORTHEAST OHIO

CITY           SKY/WX    TMP DP  RH WIND       PRES   REMARKS
CLE-HOPKINS    MOCLDY    23   8  52 SE12      30.30F WCI  12
CLE-LAKEFRONT  PTCLDY    23  17  78 CALM      30.28F
CUY CO. ARPT   MOCLDY    25  16  68 S7        30.28F WCI  17
LORAIN-ELYRIA  PTCLDY    21  11  65 S7        30.27F WCI  12
ASHTABULA      PTCLDY    22   4  46 S5        30.30S WCI  16
AKRON-CANTON   PTCLDY    22   6  50 SE7       30.27F WCI  13
WOOSTER        PTCLDY    15   4  61 SE7       30.26F WCI   5
MANSFIELD      CLEAR     22   9  57 SE10      30.23S WCI  11
YOUNGSTOWN     MOCLDY    21   4  47 S5        30.29R WCI  15
$$

OHZ042-051>053-060>062-070>072-077>081-290100-
  SOUTHWEST OHIO

CITY           SKY/WX    TMP DP  RH WIND       PRES   REMARKS
CINC-COVINGTON PTCLDY    29  19  66 S8        30.23F WCI  21
CINC-LUNKEN    PTCLDY    31  18  58 SE6       30.27F WCI  25
HAMILTON       PTCLDY    32  20  61 VRB3      30.25F
DAYTON         MOCLDY    27  19  72 SE10      30.22F WCI  17
WRIGHT-PAT AFB PTCLDY    26  18  72 E6        30.24F WCI  19
DAYTON GENERAL PTCLDY    29  19  66 SE8       30.22F WCI  21
WILMINGTON     PTCLDY    27  18  69 SE6       30.24S WCI  20
$$

OHZ036-037-039>041-045>050-054>059-063>069-073>076-082>088-290100-
  CENTRAL AND SOUTHEAST OHIO

CITY           SKY/WX    TMP DP  RH WIND       PRES   REMARKS
COLUMBUS       MOCLDY    24  13  62 SE5       30.27F WCI  18
OSU AIRPORT    MOCLDY    25  12  58 SE7       30.26F WCI  17
BOLTON FIELD   MOCLDY    22  14  72 SE3       30.26F
RICKENBACK AFB MOCLDY    23  16  75 E3        30.27F
NEWARK         PTCLDY    21  12  68 CALM      30.27F
MARION         MOCLDY    23  12  62 S9        30.25S WCI  13
LANCASTER      PTCLDY    20  14  77 E3        30.28F
ZANESVILLE     PTCLDY    22  13  68 SE5       30.29F WCI  16
NEW PHILLY     PTCLDY    22   8  55 SE5       30.31F WCI  16
$$


USA.gov is the U.S. government's official web portal to all federal, state and local government web resources and services.